This demonstration page uses our WeatherBlox Daily Observations layout. Learn more.

Left ArrowRight Arrow

39.12711, -84.51439

Hourly Observations for April 27, 2018

Temp ( °F °C ) Dew Point ( °F °C ) Humidity (%) Winds ( mph kmh ) Pressure ( in mb ) Visibility ( mi km ) Precip ( " mm )
12:53 am 00:53 Clear 47 8.3 43 6.1 86 86 Calm 29.83 1010 10 16 0.00 0.00
1:53 am 01:53 Clear 45 7.2 43 6.1 93 93 Calm 29.81 1010 10 16 0.00 0.00
2:53 am 02:53 Clear 45 7.2 44 6.7 97 97 Calm 29.80 1009 10 16 0.00 0.00
3:53 am 03:53 Clear 44 6.7 43 6.1 96 96 Calm 29.79 1009 10 16 0.00 0.00
4:34 am 04:34 Clear with Mist and Fog 43 6.1 43 6.1 100 100 Calm 29.83 1010 1 2 0.00 0.00
4:42 am 04:42 Clear with Fog 43 6.1 43 6.1 100 100 Calm 29.83 1010 1 1 0.00 0.00
4:50 am 04:50 Clear with Mist and Fog 43 6 43 6 100 100 Calm 29.83 1010 2 3 0.00 0.00
4:53 am 04:53 Clear with Mist and Fog 42 5.6 42 5.6 100 100 Calm 29.80 1009 4 6 0.00 0.00
5:49 am 05:49 Clear with Mist and Fog 43 6 43 6 100 100 Calm 29.83 1010 2 2 0.00 0.00
5:53 am 05:53 Clear with Fog 42 5.6 42 5.6 100 100 Calm 29.80 1009 1 1 0.00 0.00
6:15 am 06:15 Clear with Mist and Fog 41 5 41 5 100 100 Calm 29.83 1010 3 4 0.00 0.00
6:22 am 06:22 Clear 42 5.6 42 5.6 100 100 Calm 29.83 1010 10 16 0.00 0.00
6:34 am 06:34 Clear with Mist and Fog 42 5.6 42 5.6 100 100 Calm 29.83 1010 2 3 0.00 0.00
6:43 am 06:43 Clear with Mist and Fog 42 5.6 42 5.6 100 100 Calm 29.83 1010 4 6 0.00 0.00
6:53 am 06:53 Sunny 42 5.6 42 5.6 100 100 Calm 29.81 1009 10 16 0.00 0.00
7:53 am 07:53 Sunny 43 6.1 43 6.1 100 100 Calm 29.82 1010 10 16 0.00 0.00
8:53 am 08:53 Sunny 48 8.9 46 7.8 93 93 Calm 29.82 1010 10 16 0.00 0.00
9:53 am 09:53 Sunny 56 13.3 48 8.9 75 75 SSW 3 6 29.81 1009 10 16 0.00 0.00
10:53 am 10:53 Sunny 64 17.8 39 3.9 40 40 W 10 17 29.80 1009 10 16 0.00 0.00
11:53 am 11:53 Sunny 67 19.4 37 2.8 33 33 W 9 15 29.79 1009 10 16 0.00 0.00
12:53 pm 12:53 Sunny 68 20 40 4.4 36 36 WSW 13 20 29.78 1008 10 16 0.00 0.00
1:53 pm 13:53 Mostly Sunny 69 20.6 39 3.9 33 33 WSW 17 28 29.75 1008 10 16 0.00 0.00
2:53 pm 14:53 Cloudy 68 20 38 3.3 33 33 WSW 20 31 29.73 1007 10 16 0.00 0.00
3:53 pm 15:53 Mostly Cloudy 70 21.1 43 6.1 38 38 W 14 22 29.73 1007 10 16 0.00 0.00
4:53 pm 16:53 Partly Cloudy 70 21.1 45 7.2 41 41 W 13 20 29.73 1007 10 16 0.00 0.00
5:53 pm 17:53 Sunny 68 20 39 3.9 35 35 W 14 22 29.75 1007 10 16 0.00 0.00
6:53 pm 18:53 Sunny 67 19.4 35 1.7 31 31 WNW 16 26 29.77 1008 10 16 0.00 0.00
7:53 pm 19:53 Sunny 65 18.3 28 -2.2 25 25 WNW 13 20 29.77 1008 10 16 0.00 0.00
8:53 pm 20:53 Clear 62 16.7 26 -3.3 25 25 VRB 6 9 29.79 1009 10 16 0.00 0.00
9:53 pm 21:53 Clear 51 10.6 39 3.9 64 64 Calm 29.80 1009 10 16 0.00 0.00
10:53 pm 22:53 Clear 47 8.3 40 4.4 77 77 Calm 29.81 1010 10 16 0.00 0.00
11:53 pm 23:53 Clear 47 8.3 40 4.4 77 77 Calm 29.80 1009 10 16 0.00 0.00

Powered by AerisWeather